Location: Claremont
(33.9858°S, 18.4575°E)
Time: 19:42:22
(UTC+00:00)

deb Transit VC - Pass Details

Date: 04 October 2021
Orbit: 840 x 910 km, 90.5° (Epoch: 27 October)

Event Time Altitude Azimuth Distance (km) Brightness Sun altitude
Rises 03:22:56 0° 164° (SSE) 3,432 ? -12.3°
Reaches altitude 10° 03:25:41 10° 152° (SSE) 2,494 ? -11.7°
Maximum altitude 03:30:26 28° 93° (E) 1,562 ? -10.8°
Drops below altitude 10° 03:35:10 10° 35° (NE) 2,497 ? -9.8°
Sets 03:37:54 0° 24° (NNE) 3,437 ? -9.2°
